EW6224 Weather Reports


Display with metric or nautical units.
time (UTC)temp
F
wind
direction
speed
MPH
gust
MPH
rain 1hr
in
rain 24hr
in
rain mn
in
humidity
%
barometer
mb
20260508124555 51 165 0.0 7.0 0.00 0.00 0.00 69 1014.0
20260508123056 50 0 1.0 7.0 0.00 0.00 0.00 68 1013.9
20260508121553 50 0 2.0 5.0 0.00 0.00 0.00 67 1013.8
20260508120052 50 0 1.0 8.0 0.00 0.00 0.00 69 1013.9
20260508114551 49 201 1.0 5.0 0.00 0.00 0.00 73 1013.7
20260508113055 46 0 0.0 5.0 0.00 0.00 0.00 78 1013.7
20260508111558 43 0 0.0 5.0 0.00 0.00 0.00 84 1013.6
20260508110052 41 0 0.0 0.0 0.00 0.00 0.00 89 1013.5
20260508104556 40 0 0.0 1.0 0.00 0.00 0.00 90 1013.3
20260508103059 39 0 0.0 1.0 0.00 0.00 0.00 90 1013.2
20260508101553 39 0 0.0 0.0 0.00 0.00 0.00 90 1013.1
20260508100109 40 0 0.0 0.0 0.00 0.00 0.00 89 1013.0
20260508094609 40 0 0.0 0.0 0.00 0.00 0.00 89 1013.2
20260508093058 41 0 0.0 0.0 0.00 0.00 0.00 88 1013.2
20260508091604 41 0 0.0 0.0 0.00 0.00 0.00 88 1013.4
20260508090115 42 0 0.0 0.0 0.00 0.00 0.00 87 1013.5
20260508084600 43 0 0.0 1.0 0.00 0.00 0.00 85 1013.6
20260508083056 44 0 0.0 0.0 0.00 0.00 0.00 83 1013.4
20260508081605 45 0 0.0 0.0 0.00 0.00 0.00 82 1013.3
20260508080055 46 0 0.0 0.0 0.00 0.00 0.00 83 1013.5
20260508074556 46 0 0.0 1.0 0.00 0.00 0.00 82 1013.6
20260508073108 47 0 0.0 0.0 0.00 0.00 0.00 81 1013.4
20260508071553 47 0 0.0 1.0 0.00 0.00 0.00 76 1013.6
20260508070054 47 0 0.0 0.0 0.00 0.00 0.00 78 1013.6
20260508064606 48 0 0.0 1.0 0.00 0.00 0.00 75 1014.1
20260508063109 48 0 0.0 1.0 0.00 0.00 0.00 75 1014.5
20260508061606 47 0 0.0 3.0 0.00 0.00 0.00 78 1014.7
20260508060105 47 0 0.0 3.0 0.00 0.00 0.00 78 1014.7
20260508054554 46 0 0.0 1.0 0.00 0.01 0.00 84 1014.2
20260508053059 46 0 0.0 0.0 0.00 0.01 0.00 84 1013.9
20260508051612 45 0 0.0 0.0 0.00 0.01 0.00 84 1014.0
20260508050053 45 0 0.0 0.0 0.00 0.01 0.00 84 1014.1
20260508044551 45 0 0.0 0.0 0.00 0.01 0.00 84 1014.2
20260508043052 45 0 0.0 0.0 0.00 0.01 0.00 79 1014.2
20260508041555 45 0 0.0 0.0 0.00 0.01 0.00 81 1014.0
20260508040100 45 0 0.0 1.0 0.00 0.01 0.00 79 1014.2
20260508034555 45 0 0.0 0.0 0.00 0.01 0.01 81 1014.2
20260508033059 44 0 0.0 0.0 0.00 0.01 0.01 79 1014.3
20260508031557 44 0 0.0 0.0 0.00 0.01 0.01 82 1014.1
20260508030059 44 0 0.0 0.0 0.00 0.01 0.01 76 1014.0
20260508024615 45 0 0.0 0.0 0.00 0.01 0.01 77 1014.2
20260508023053 45 0 0.0 0.0 0.00 0.01 0.01 77 1013.9
20260508021558 45 0 0.0 0.0 0.00 0.01 0.01 76 1013.9
20260508020104 46 0 0.0 0.0 0.00 0.01 0.01 70 1013.8
20260508014557 46 0 0.0 0.0 0.00 0.01 0.01 66 1013.9
20260508013058 47 0 0.0 0.0 0.00 0.01 0.01 65 1013.9
20260508011602 48 0 0.0 0.0 0.00 0.01 0.01 61 1013.7
20260508010101 49 0 0.0 0.0 0.00 0.01 0.01 59 1013.7
20260508004601 50 0 0.0 0.0 0.00 0.01 0.01 56 1013.7
20260508003056 51 0 0.0 0.0 0.00 0.01 0.01 53 1013.6
20260508001556 52 0 0.0 1.0 0.00 0.01 0.01 51 1013.5
20260508000054 53 0 0.0 2.0 0.00 0.01 0.01 49 1013.4
20260507234557 54 0 0.0 2.0 0.00 0.01 0.01 49 1013.2
20260507233058 55 0 0.0 8.0 0.00 0.01 0.01 47 1013.2
20260507231559 55 352 0.0 5.0 0.00 0.01 0.01 49 1013.2
20260507230110 56 0 0.0 4.0 0.00 0.01 0.01 45 1013.2
20260507224556 56 0 0.0 5.0 0.00 0.01 0.01 46 1013.4
20260507223055 55 311 1.0 4.0 0.00 0.01 0.01 47 1013.4
20260507221558 54 0 0.0 7.0 0.00 0.01 0.01 49 1013.5
20260507220058 55 0 1.0 5.0 0.00 0.01 0.01 45 1013.5
20260507214551 57 346 3.0 14.0 0.00 0.01 0.01 45 1013.3
20260507213051 58 340 4.0 11.0 0.00 0.01 0.01 48 1013.2
20260507211558 58 344 2.0 10.0 0.00 0.01 0.01 44 1013.0
20260507210107 58 236 2.0 11.0 0.00 0.01 0.01 44 1012.9
20260507204549 57 328 2.0 11.0 0.00 0.01 0.01 51 1012.9
20260507203115 57 5 4.0 10.0 0.00 0.01 0.01 46 1012.9
20260507201553 57 295 2.0 12.0 0.00 0.01 0.01 47 1013.1
20260507200053 56 355 1.0 11.0 0.00 0.01 0.01 51 1013.1
20260507194617 57 329 5.0 11.0 0.00 0.01 0.01 46 1013.1
20260507193052 57 355 2.0 10.0 0.00 0.01 0.01 44 1013.2
20260507191550 56 28 2.0 10.0 0.00 0.01 0.01 51 1013.3
20260507190059 56 274 3.0 10.0 0.00 0.01 0.01 52 1013.3
20260507184554 57 5 5.0 10.0 0.00 0.02 0.01 51 1013.3
20260507183056 56 164 3.0 11.0 0.00 0.02 0.01 54 1013.3
20260507181553 56 234 2.0 10.0 0.00 0.02 0.01 55 1013.3
20260507180053 55 33 3.0 12.0 0.00 0.02 0.01 50 1013.4
20260507174559 55 269 2.0 11.0 0.00 0.03 0.01 50 1013.6
20260507173128 56 346 2.0 11.0 0.00 0.03 0.01 55 1013.7
20260507171558 55 344 3.0 8.0 0.00 0.03 0.01 55 1013.9
20260507170052 55 0 5.0 12.0 0.00 0.03 0.01 46 1014.0
20260507164554 55 347 2.0 9.0 0.00 0.04 0.01 49 1013.9
20260507163050 55 234 2.0 8.0 0.00 0.04 0.01 51 1014.0
20260507161606 54 302 2.0 9.0 0.00 0.04 0.01 52 1013.9
20260507160059 54 352 2.0 7.0 0.00 0.04 0.01 47 1014.0
20260507154551 53 336 3.0 11.0 0.00 0.05 0.01 47 1013.9
20260507153057 54 195 1.0 9.0 0.00 0.05 0.01 50 1013.8
20260507151552 53 217 2.0 10.0 0.00 0.05 0.01 52 1013.8
20260507150054 53 21 2.0 7.0 0.00 0.05 0.01 56 1013.8
20260507144603 53 355 2.0 9.0 0.00 0.06 0.01 51 1014.0
20260507143101 53 323 2.0 7.0 0.00 0.06 0.01 56 1014.1
20260507141600 51 345 2.0 7.0 0.00 0.06 0.01 59 1014.2
20260507140049 51 267 1.0 8.0 0.00 0.06 0.01 59 1014.2
20260507134556 51 180 1.0 8.0 0.00 0.08 0.01 62 1014.3
20260507133137 50 0 1.0 6.0 0.00 0.08 0.01 62 1014.3
20260507131558 49 349 1.0 4.0 0.00 0.08 0.01 65 1014.6
20260507130103 48 0 1.0 7.0 0.00 0.08 0.01 68 1014.4